Weather History for KUBE - March, 2014

Change the Weather History Date:

Saturday, March 1, 2014

  Actual Average (KRPD) Record (KRPD)
Temperature  
Mean Temperature -1 °F -  
Max Temperature 5 °F 27 °F 46 °F (2004)
Min Temperature -9 °F 12 °F -7 °F (2014)
Degree Days  
Heating Degree Days 66    
Moisture  
Dew Point -15 °F    
Average Humidity 58    
Maximum Humidity 78    
Minimum Humidity 41    
Precipitation  
Precipitation 0.00 in - - ()
Sea Level Pressure  
Sea Level Pressure 30.29 in    
Wind  
Wind Speed 13 mph (NW)    
Max Wind Speed 18 mph    
Max Gust Speed 20 mph    
Visibility 10 miles    
Events      
Averages and records for this station are not official NWS values.
T = Trace of Precipitation, MM = Missing Value Source: NWS Daily Summary

Daily Weather History Graph

Daily Weather History Graph

Search for Another Location

Airport or City:

Trip Planner

Search our weather history database for the weather conditions in past years. The results will help you decide how hot, cold, wet, or windy it might be!

Date:

Astronomy

Mar. 01, 2014 Rise Set
Actual Time 6:46 AM CST 5:54 PM CST
Civil Twilight 6:16 AM CST 6:24 PM CST
Nautical Twilight 5:42 AM CST 6:59 PM CST
Astronomical Twilight 5:07 AM CST 7:33 PM CST
Moon 6:37 AM CST (3/1) 6:47 PM CST (3/1)
Length of Visible Light 12h 08m
Length of Day
11h 08m
New Moon, 0% of the Moon is Illuminated
Mar 1
New Moon
Mar 8
First Quarter
Mar 16
Full
Mar 23
Last Quarter
Mar 30
New

Hourly Weather History & Observations

Time (CST) Temp. Windchill Dew Point Humidity Pressure Visibility Wind Dir Wind Speed Gust Speed Precip Events Conditions
12:15 AM 5.0 °F -13.0 °F -4.0 °F 66% 30.09 in 10.0 mi NNW 15.0 mph - N/A   Mostly Cloudy
12:35 AM 5.0 °F -10.0 °F -4.0 °F 66% 30.10 in 10.0 mi NNW 10.4 mph - N/A   Scattered Clouds
12:55 AM 3.2 °F -12.2 °F -5.8 °F 66% 30.10 in 10.0 mi NNW 10.4 mph - N/A   Scattered Clouds
1:15 AM 3.2 °F -14.6 °F -5.8 °F 66% 30.12 in 10.0 mi NNW 13.8 mph - N/A   Scattered Clouds
1:35 AM 3.2 °F -15.3 °F -5.8 °F 66% 30.12 in 10.0 mi NNW 15.0 mph - N/A   Scattered Clouds
1:55 AM 1.4 °F -17.6 °F -5.8 °F 72% 30.13 in 10.0 mi NNW 15.0 mph - N/A   Clear
2:15 AM 1.4 °F -17.6 °F -7.6 °F 66% 30.14 in 10.0 mi NNW 15.0 mph - N/A   Clear
2:35 AM 1.4 °F -16.1 °F -7.6 °F 66% 30.14 in 10.0 mi NNW 12.7 mph 18.4 mph N/A   Clear
2:55 AM -0.4 °F -19.9 °F -7.6 °F 72% 30.14 in 10.0 mi NNW 15.0 mph 19.6 mph N/A   Clear
3:15 AM -0.4 °F -20.5 °F -7.6 °F 72% 30.15 in 10.0 mi NNW 16.1 mph - N/A   Clear
3:35 AM -0.4 °F -19.2 °F -7.6 °F 72% 30.16 in 10.0 mi NW 13.8 mph 19.6 mph N/A   Clear
3:55 AM -0.4 °F -16.7 °F -7.6 °F 72% 30.17 in 10.0 mi NW 10.4 mph 17.3 mph N/A   Clear
4:15 AM -0.4 °F -17.6 °F -7.6 °F 72% 30.17 in 10.0 mi NNW 11.5 mph - N/A   Scattered Clouds
4:35 AM -2.2 °F -18.9 °F -9.4 °F 71% 30.18 in 10.0 mi NNW 10.4 mph - N/A   Scattered Clouds
4:55 AM -4.0 °F -21.2 °F -9.4 °F 78% 30.19 in 10.0 mi NW 10.4 mph - N/A   Clear
5:15 AM -4.0 °F -22.1 °F -9.4 °F 78% 30.21 in 10.0 mi NW 11.5 mph - N/A   Clear
5:35 AM -4.0 °F -24.5 °F -9.4 °F 78% 30.21 in 10.0 mi NNW 15.0 mph - N/A   Clear
5:55 AM -4.0 °F -23.0 °F -9.4 °F 78% 30.22 in 10.0 mi NW 12.7 mph - N/A   Clear
6:15 AM -4.0 °F -24.5 °F -9.4 °F 78% 30.24 in 10.0 mi NW 15.0 mph 19.6 mph N/A   Clear
6:35 AM -4.0 °F -19.0 °F -11.2 °F 71% 30.24 in 10.0 mi NW 8.1 mph - N/A   Scattered Clouds
6:55 AM -4.0 °F -23.7 °F -13.0 °F 65% 30.25 in 10.0 mi NNW 13.8 mph 17.3 mph N/A   Scattered Clouds
7:15 AM -4.0 °F -21.2 °F -13.0 °F 65% 30.25 in 10.0 mi NW 10.4 mph - N/A   Mostly Cloudy
7:35 AM -5.8 °F -24.4 °F -13.0 °F 71% 30.26 in 10.0 mi NW 11.5 mph - N/A   Scattered Clouds
7:55 AM -5.8 °F -24.4 °F -13.0 °F 71% 30.27 in 10.0 mi NW 11.5 mph - N/A   Scattered Clouds
8:15 AM -5.8 °F -23.4 °F -13.0 °F 71% 30.28 in 10.0 mi NW 10.4 mph - N/A   Scattered Clouds
8:35 AM -5.8 °F -25.2 °F -13.0 °F 71% 30.29 in 10.0 mi NW 12.7 mph - N/A   Scattered Clouds
8:55 AM -5.8 °F -23.4 °F -13.0 °F 71% 30.30 in 10.0 mi NW 10.4 mph - N/A   Scattered Clouds
9:15 AM -5.8 °F -23.4 °F -13.0 °F 71% 30.30 in 10.0 mi NW 10.4 mph - N/A   Clear
9:35 AM -4.0 °F -20.2 °F -13.0 °F 65% 30.30 in 10.0 mi NW 9.2 mph - N/A   Scattered Clouds
9:55 AM -4.0 °F -20.2 °F -13.0 °F 65% 30.30 in 10.0 mi NW 9.2 mph - N/A   Clear
10:15 AM -4.0 °F -21.2 °F -13.0 °F 65% 30.30 in 10.0 mi NW 10.4 mph - N/A   Clear
10:35 AM -4.0 °F -20.2 °F -13.0 °F 65% 30.32 in 10.0 mi WNW 9.2 mph - N/A   Clear
10:55 AM -4.0 °F -21.2 °F -13.0 °F 65% 30.32 in 10.0 mi NW 10.4 mph - N/A   Scattered Clouds
11:15 AM -4.0 °F -21.2 °F -13.0 °F 65% 30.34 in 10.0 mi WNW 10.4 mph - N/A   Scattered Clouds
11:35 AM -4.0 °F -22.1 °F -13.0 °F 65% 30.35 in 10.0 mi WNW 11.5 mph - N/A   Mostly Cloudy
11:55 AM -2.2 °F -19.9 °F -13.0 °F 60% 30.33 in 10.0 mi NW 11.5 mph - N/A   Scattered Clouds
12:15 PM -2.2 °F -18.9 °F -13.0 °F 60% 30.35 in 10.0 mi WNW 10.4 mph - N/A   Clear
12:35 PM -0.4 °F -16.7 °F -13.0 °F 55% 30.34 in 10.0 mi NW 10.4 mph - N/A   Clear
12:55 PM -0.4 °F -19.2 °F -13.0 °F 55% 30.33 in 10.0 mi NW 13.8 mph - N/A   Clear
1:15 PM -0.4 °F -16.7 °F -14.8 °F 51% 30.33 in 10.0 mi NW 10.4 mph - N/A   Clear
1:35 PM -0.4 °F -18.4 °F -14.8 °F 51% 30.33 in 10.0 mi NW 12.7 mph - N/A   Clear
1:55 PM -0.4 °F -17.6 °F -14.8 °F 51% 30.33 in 10.0 mi NW 11.5 mph 16.1 mph N/A   Clear
2:15 PM -0.4 °F -16.7 °F -14.8 °F 51% 30.33 in 10.0 mi NW 10.4 mph - N/A   Clear
2:35 PM -0.4 °F -18.4 °F -16.6 °F 46% 30.33 in 10.0 mi NW 12.7 mph - N/A   Clear
2:55 PM -0.4 °F -16.7 °F -16.6 °F 46% 30.33 in 10.0 mi NW 10.4 mph 17.3 mph N/A   Clear
3:15 PM -0.4 °F -16.7 °F -16.6 °F 46% 30.33 in 10.0 mi WNW 10.4 mph - N/A   Clear
3:35 PM -0.4 °F -18.4 °F -16.6 °F 46% 30.33 in 10.0 mi NW 12.7 mph - N/A   Scattered Clouds
3:55 PM -0.4 °F -18.4 °F -18.4 °F 43% 30.33 in 10.0 mi NW 12.7 mph 17.3 mph N/A   Scattered Clouds
4:15 PM -0.4 °F -17.6 °F -16.6 °F 46% 30.34 in 10.0 mi NW 11.5 mph - N/A   Scattered Clouds
4:35 PM -2.2 °F -21.5 °F -18.4 °F 46% 30.34 in 10.0 mi NW 13.8 mph - N/A   Clear
4:55 PM -2.2 °F -18.0 °F -20.2 °F 42% 30.35 in 10.0 mi NW 9.2 mph - N/A   Clear
5:15 PM -2.2 °F -21.5 °F -18.4 °F 46% 30.34 in 10.0 mi NW 13.8 mph - N/A   Clear
5:35 PM -2.2 °F -22.2 °F -20.2 °F 42% 30.36 in 10.0 mi NW 15.0 mph 18.4 mph N/A   Clear
5:55 PM -4.0 °F -24.5 °F -18.4 °F 50% 30.36 in 10.0 mi NW 15.0 mph - N/A   Clear
6:15 PM -4.0 °F -24.5 °F -20.2 °F 46% 30.36 in 10.0 mi NW 15.0 mph 19.6 mph N/A   Clear
6:35 PM -4.0 °F -22.1 °F -22.0 °F 42% 30.38 in 10.0 mi NW 11.5 mph - N/A   Scattered Clouds
6:55 PM -4.0 °F -23.0 °F -22.0 °F 42% 30.39 in 10.0 mi NW 12.7 mph - N/A   Clear
7:15 PM -4.0 °F -23.7 °F -22.0 °F 42% 30.38 in 10.0 mi NNW 13.8 mph 18.4 mph N/A   Clear
7:30 PM -4.0 °F -24.5 °F -22.0 °F 42% 30.38 in 10.0 mi NNW 15.0 mph 19.6 mph N/A   Clear
7:55 PM -5.8 °F -25.2 °F -22.0 °F 46% 30.39 in 10.0 mi NNW 12.7 mph - N/A   Scattered Clouds
8:15 PM -5.8 °F -28.8 °F -22.0 °F 46% 30.39 in 10.0 mi NNW 18.4 mph - N/A   Clear
8:35 PM -5.8 °F -26.0 °F -23.8 °F 42% 30.40 in 10.0 mi NNW 13.8 mph - N/A   Clear
8:55 PM -5.8 °F -26.0 °F -23.8 °F 42% 30.39 in 10.0 mi NNW 13.8 mph - N/A   Clear
9:15 PM -5.8 °F -22.4 °F -23.8 °F 42% 30.40 in 10.0 mi NNW 9.2 mph - N/A   Clear
9:35 PM -7.6 °F -23.4 °F -23.8 °F 45% 30.40 in 10.0 mi NNW 8.1 mph - N/A   Clear
9:55 PM -7.6 °F -26.6 °F -23.8 °F 45% 30.40 in 10.0 mi NNW 11.5 mph - N/A   Clear
10:15 PM -7.6 °F -25.7 °F -23.8 °F 45% 30.41 in 10.0 mi NNW 10.4 mph - N/A   Clear
10:35 PM -7.6 °F -29.8 °F -25.6 °F 41% 30.40 in 10.0 mi NNW 16.1 mph - N/A   Clear
10:55 PM -7.6 °F -29.1 °F -25.6 °F 41% 30.39 in 10.0 mi NNW 15.0 mph - N/A   Clear
11:15 PM -7.6 °F -26.6 °F -23.8 °F 45% 30.40 in 10.0 mi NNW 11.5 mph - N/A   Clear
11:35 PM -7.6 °F -26.6 °F -25.6 °F 41% 30.41 in 10.0 mi NNW 11.5 mph - N/A   Clear
11:55 PM -9.4 °F -27.9 °F -25.6 °F 45% 30.41 in 10.0 mi NNW 10.4 mph - N/A   Clear